Torax TimeFrame

Torax TimeFrame ⇒ XML

NameTime LeftWindow OpensKilledCrew
Animated Captain13d 22:192018-08-05 17:14:002018-04-17 14:02:00Pulse
Old World Drake13d 21:132018-08-05 18:20:002018-03-21 11:50:00_-Legacy-_
Xynak, the Arcane Master1d 22:242018-08-17 17:09:002018-05-02 02:09:00Pulse
Wanhiroeaz the Devourer1d 09:542018-08-18 05:39:002018-05-02 14:09:00The Last One Standing
Windstrike The Vile1d 09:232018-08-18 06:10:002018-04-30 10:29:00##ARGYBOYZ##
Zertan, The Collector1d 02:202018-08-18 13:13:002018-05-03 14:08:00Maroder
Garland, The Lord Keeper0d 21:472018-08-18 17:46:002018-05-02 20:48:00The Last One Standing
Keeper of Nature0d 20:372018-08-18 18:56:002018-05-03 15:31:00SAVAGE [ASTRAL2]
Lord Sibannac0d 18:352018-08-18 20:58:002018-05-03 14:57:00perdition {t-c}
Crantos, Defender of Ultimation0d 18:352018-08-18 20:58:002018-04-30 16:34:00##ARGYBOYZ##
Hyrak, Bringer of Nightmares0d 15:492018-08-18 23:44:002018-05-02 16:45:00-Brothers In Arms-
Karvaz, Lord of Alsayic0d 15:262018-08-19 00:07:002018-05-02 17:57:00SAVAGES
Samatha Dark-Soul0d 07:592018-08-19 07:34:002018-04-30 23:00:00-= ILLUMINATI =-
Straya, the Underworld Ruler0d 05:292018-08-19 10:04:002018-04-29 02:37:00SAVAGES
Anvilfist0d 05:232018-08-19 10:10:002018-05-02 23:11:00SAVAGE
Sarcrina the Astral Priestess0d 04:192018-08-19 11:14:002018-05-02 21:10:00SAVAGE [ASTRAL3]
Brutalitar, Lord of the Underworld0d 03:122018-08-19 12:21:002018-05-02 03:14:00[FAP] PotSetA
Ebliss, Fallen Angel of Despair0d 02:442018-08-19 12:49:002018-05-03 14:19:00SAVAGE [POT1]
Lord Narada0d 02:172018-08-19 13:16:002018-05-03 14:59:00[FAP] PotSetD
Crane0d 01:242018-08-19 14:09:002018-05-03 01:16:00Blood&Honor
Synge, The Red Dragon0d 01:032018-08-19 14:30:002018-05-01 21:39:00The Bloodguards
Ancient Magus Tarkin0d 00:432018-08-19 14:50:002018-05-02 16:15:00[FAP] AstralC
Rotborn, Eater of the Dead0d 00:422018-08-19 14:51:002018-05-02 11:45:00[FAP] CoesD
Volgan the Living Ironbark0d 00:312018-08-19 15:02:002018-05-03 01:25:00SAVAGE [ASTRAL4]
Gorganus of the Wood0d 00:532018-08-19 16:27:002018-05-01 12:50:00SAVAGE
Numerocure, The Black Messenger of Evil0d 01:142018-08-19 16:48:002018-05-01 12:28:00[FAP] CoesD
Dreg nor, Keeper of the Infernal Essence0d 03:422018-08-19 19:16:002018-05-01 04:31:00$AVAGE$
Terrance, Rebel of Rallis0d 04:112018-08-19 19:45:002018-05-01 21:34:00The Bloodguards
Ganja the Stone Golem0d 04:122018-08-19 19:46:002018-05-02 10:49:00Zero Division
Shadow0d 07:162018-08-19 22:50:002018-05-03 12:41:00stoka100
Pinosis0d 07:192018-08-19 22:53:002018-05-02 10:28:00Blood&Honor
Gnorb0d 07:232018-08-19 22:57:002018-05-04 03:50:00Axis of Anarchy
Nessam0d 07:262018-08-19 23:00:002018-05-03 13:14:00perdition {t-c}
Freezebreed, The Frozen Manipulator0d 07:442018-08-19 23:18:002018-05-03 17:39:00SAVAGE [FREEZE]
Viserion, the Necrodragon0d 08:162018-08-19 23:50:002018-04-29 00:28:00SAVAGES
Baron Mu, Dark Rider of the Undead0d 09:442018-08-20 01:18:002018-05-03 19:46:00[FAP] Baron
Lord Xordam0d 09:482018-08-20 01:22:002018-05-01 18:22:00A$$holes of America
Skybrine The Inescapable0d 10:032018-08-20 01:37:002018-05-02 06:01:00Warriors
Lady Chaos, Queen of the Abyss0d 10:452018-08-20 02:19:002018-05-04 03:20:00SAVAGE [COES4]
Balerion, Dragon of Dread0d 10:562018-08-20 02:30:002018-04-28 18:41:00##ARGYBOYZ##
Lord Varan0d 10:572018-08-20 02:31:002018-05-03 19:34:00SAVAGE [POT4]
Anguish0d 11:432018-08-20 03:17:002018-05-03 11:33:00stoka100
Lady Ariella0d 12:162018-08-20 03:50:002018-05-04 00:18:00SAVAGE [POT1]
Tsort0d 12:212018-08-20 03:55:002018-05-03 16:30:00perdition {t-c}
Zikkir the Dark Archer0d 12:392018-08-20 04:13:002018-05-02 14:27:00[FAP] AstralA
Rancid, Lord of Thugs0d 16:522018-08-20 08:26:002018-05-03 10:09:00-= ILLUMINATI =-
Lacuste of the Swarm0d 17:472018-08-20 09:21:002018-05-01 22:29:00Excommunicado
Lord Suka0d 18:002018-08-20 09:34:002018-05-01 15:33:00[FAP] PotSetC
Murderface0d 18:352018-08-20 10:09:002018-05-02 18:12:00-= ILLUMINATI =-
Melt Bane, The Forbidden Demon Dragon0d 23:082018-08-20 14:42:002018-05-02 05:32:00[FAP] CoesC
Felroc, Overseer of Hellfire0d 23:422018-08-20 15:16:002018-05-03 11:25:00##ARGYBOYZ##
Hackerphage, Protector of the Gateway1d 00:072018-08-20 15:41:002018-05-01 14:11:00[FAP] CoesC
Archdevil Yirkon1d 00:162018-08-20 15:50:002018-05-03 08:52:00[FAP] AstralD
Ag Nabak the Abomination1d 01:272018-08-20 17:01:002018-04-29 20:26:00-= ILLUMINATI =-
The Emerald Assassin1d 05:232018-08-20 20:57:002018-05-02 03:17:00Untaimables
Tylos, The Lord Master1d 06:092018-08-20 21:43:002018-05-03 17:18:00The Last One Standing
Mistress of the Sword1d 06:272018-08-20 22:01:002018-05-02 12:17:00Zero Division
Howldroid, Tormentor of the Pit1d 07:132018-08-20 22:47:002018-05-03 02:55:00[FAP] CoesB
Smoot the Yeti1d 08:072018-08-20 23:41:002018-05-02 05:42:00-= ILLUMINATI =-
Raiyar, the Shadow Master1d 08:472018-08-21 00:21:002018-04-30 07:52:00Pulse
Jorun the Blazing Swordsman1d 09:252018-08-21 00:59:002018-05-02 03:32:00[FAP] AstralD
Detox1d 10:142018-08-21 01:48:002018-05-02 18:15:00Fire and Fury
Threk, King of Lords1d 11:042018-08-21 02:38:002018-05-03 16:52:00The Last One Standing
Bloodchill the Grizzly1d 16:242018-08-21 07:58:002018-05-03 13:12:00perdition {t-c}
Sylvanna TorLai1d 17:082018-08-21 08:42:002018-05-03 01:09:00Excommunicado
Nar Zhul, Slayer of All1d 17:092018-08-21 08:43:002018-04-30 05:15:00SAVAGE [POT3]
Ormsul the Putrid1d 19:562018-08-21 11:30:002018-04-30 03:21:00Excommunicado
Skarthul the Avenged1d 21:072018-08-21 12:41:002018-05-01 08:22:00##ARGYBOYZ##
Traxodon the Plaguebringer2d 00:162018-08-21 15:50:002018-05-01 22:00:00The Bloodguards
Nafir, God of Desolation2d 01:262018-08-21 17:00:002018-04-29 10:46:00##ARGYBOYZ##
Nayark the Mummified Sorcerer2d 05:452018-08-21 21:19:002018-05-01 07:20:00[FAP] AstralC
Emperor Neudeus, Controller of the Universe2d 06:122018-08-21 21:46:002018-04-27 15:25:00SAVAGE [COES2]
King Ashnar, Lord of the Unliving2d 07:032018-08-21 22:37:002018-05-01 14:50:00$AVAGE$
Slashbrood, Devourer of the Blackness2d 11:512018-08-22 03:25:002018-05-01 13:09:00SAVAGE [COES2]
Jazzmin, Maiden of Vitality2d 14:392018-08-22 06:13:002018-05-01 12:52:00Zero Division
Bolkor, the Holy Master2d 15:152018-08-22 06:49:002018-05-03 22:01:00Pulse
Crolvak, the Fire Master2d 17:402018-08-22 09:14:002018-05-03 21:29:00SAVAGES
Quiver, The Renegade2d 20:092018-08-22 11:43:002018-04-30 06:50:00-= ILLUMINATI =-
Sigil, Lich of Woe3d 01:172018-08-22 16:51:002018-05-03 20:19:00-= ILLUMINATI =-
Akkel the Enflamed Warrior3d 08:312018-08-23 00:05:002018-05-03 02:22:00SAVAGE [ASTRAL3]
Kro Shuk, Doomslayer3d 09:442018-08-23 01:18:002018-04-27 21:56:00SAVAGE [POT1]
Q-SEC Commander3d 11:572018-08-23 03:31:002018-05-03 14:40:00Pulse
Great Lord Ganeshan3d 13:302018-08-23 05:04:002018-05-03 16:52:00[FAP] PotSetA
Esquin, the Kinetic Master4d 08:032018-08-23 23:37:002018-04-28 22:00:00~ The Following ~
Kretok, Descendant of Nature4d 14:042018-08-24 05:38:002018-05-02 09:43:00Pulse
Beast of Cards4d 17:532018-08-24 09:27:002018-03-13 21:52:00Pulse
Dlanod, the Crazed Chancellor4d 21:232018-08-24 12:57:002018-04-29 01:27:00SAVAGES
Shaik, Servant of Arkron43d 09:502018-07-07 05:43:002017-09-28 12:21:00Iron Fist
Rook, Hand of Arkron41d 12:252018-07-09 03:08:002017-09-27 18:52:00~ The Following ~
Jade Dragonite36d 06:332018-07-14 09:00:002018-02-20 00:39:00 ##ARGYBOYZ##
Varsanor, Master of Darkness7d 21:462018-08-11 17:47:002018-05-01 11:08:00- Insomnia -
Grivvek, Protector of the Brood5d 08:402018-08-14 06:53:002018-05-01 13:55:00Warriors
Noxious Slug3d 22:472018-08-15 16:46:002018-03-13 21:41:00Pulse
Vitkros, Hydra of the Deep1d 21:402018-08-17 17:53:002018-05-03 18:06:00The Last One Standing
Amalgamated Apparition1d 12:252018-08-18 03:08:002018-05-03 12:01:00[FAP] AstralC
95 Gods, Last update: 2018-08-19 15:30:12